Gold Coast Seaway Observation History
Time Wind Speed Temp Pressure Rel. Hum Rain
11/05:30pm NNE 15-17 kts 25.3°c 1010.6 hPa 97% 0.0mm
11/05:00pm NNE 14-15 kts 25.8°c 1010.2 hPa 95% 0.0mm
11/04:30pm NNE 15-16 kts 26.1°c 1009.4 hPa 94% 0.0mm
11/04:00pm NNE 14-16 kts 26.5°c 1009.8 hPa 93% 0.0mm
11/03:30pm NNE 16-17 kts 26.9°c 1009.9 hPa 90% 0.0mm
11/03:00pm NNE 16-18 kts 28.2°c 1010.0 hPa 85% 0.0mm
11/02:30pm NNE 16-19 kts 28.3°c 1010.4 hPa 84% 0.0mm
11/02:00pm NNE 17-18 kts 28.8°c 1010.8 hPa 83% 0.0mm
11/01:30pm NE 15-17 kts 28.8°c 1010.9 hPa 83% 0.0mm
11/01:00pm NNE 13-15 kts 29.0°c 1011.3 hPa 80% 0.0mm
11/12:30pm NNE 14-15 kts 28.9°c 1011.5 hPa 78% 0.0mm
11/12:00pm NNE 14-15 kts 28.5°c 1011.7 hPa 79% 0.0mm
11/11:30am NNE 13-15 kts 28.8°c 1012.0 hPa 80% 0.0mm
11/11:00am NNE 15-16 kts 28.8°c 1012.2 hPa 81% 0.0mm
11/10:30am NNE 13-15 kts 28.7°c 1012.4 hPa 82% 0.0mm
11/10:00am NNE 13-15 kts 28.4°c 1012.6 hPa 83% 0.0mm
11/09:30am NNE 10-13 kts 27.2°c 1013.1 hPa 86% 0.0mm
11/09:00am N 8-10 kts 26.7°c 1013.4 hPa 89% 0.0mm
11/08:30am NNE 8-9 kts 26.1°c 1013.6 hPa 90% 0.0mm
11/08:00am NNE 8-10 kts 26.1°c 1014.0 hPa 94% 0.0mm
11/07:30am ENE 6-8 kts 25.2°c 1014.2 hPa 94% 0.0mm
11/07:00am E 4-5 kts 24.7°c 1014.3 hPa 96% 0.0mm
11/06:30am SSE 4-5 kts 24.7°c 1014.4 hPa 95% 0.0mm
11/06:00am W 6-8 kts 24.3°c 1014.1 hPa 94% 0.0mm
11/05:30am NW 5 kts 23.9°c 1013.2 hPa 96% 0.0mm
11/05:00am NW 6-7 kts 24.0°c 1012.6 hPa 97% 0.0mm
11/04:30am NNW 7-10 kts 24.2°c 1012.1 hPa 98% 0.0mm
11/04:00am NNW 8-11 kts 24.5°c 1011.8 hPa 97% 0.0mm
11/03:30am NW 9-13 kts 24.6°c 1011.8 hPa 97% 0.0mm
11/03:00am WNW 6-8 kts 24.6°c 1011.9 hPa 97% 0.0mm
11/02:30am NW 9-12 kts 24.8°c 1011.5 hPa 97% 0.0mm
11/02:00am NW 9-14 kts 24.6°c 1011.6 hPa 97% 0.0mm
11/01:30am N 17-24 kts 24.0°c 1011.1 hPa 100% 0.0mm
11/01:00am N 17-19 kts 24.1°c 1011.2 hPa 100% 0.0mm
11/12:30am N 15-18 kts 24.3°c 1012.5 hPa 99% 0.0mm
11/12:00am N 10-12 kts 24.3°c 1014.1 hPa 99% 0.0mm
Time Wind Speed Temp Pressure Rel. Hum Rain
10/11:30pm N 7-9 kts 24.5°c 1015.1 hPa 96% 0.0mm
10/11:00pm N 8-10 kts 24.8°c 1015.3 hPa 93% 0.0mm
10/10:30pm N 4-6 kts 25.0°c 1016.0 hPa 89% 0.0mm
10/10:00pm SSW 7-13 kts 24.8°c 1017.3 hPa 91% 0.0mm
10/09:30pm NNW 6-7 kts 24.2°c 1015.6 hPa 92% 0.0mm
10/09:00pm N 5-7 kts 24.1°c 1014.8 hPa 95% 0.0mm
10/08:30pm N 7-9 kts 24.3°c 1014.7 hPa 98% 0.0mm
10/08:00pm N 8-10 kts 24.4°c 1014.2 hPa 97% 0.0mm
10/07:30pm N 10-11 kts 24.6°c 1013.8 hPa 96% 0.0mm
10/07:00pm N 10-12 kts 24.7°c 1013.9 hPa 94% 0.0mm
10/06:30pm N 13-15 kts 25.0°c 1013.5 hPa 92% 0.0mm
10/06:00pm N 15-17 kts 25.2°c 1013.1 hPa 91% 0.0mm
10/05:30pm N 16-18 kts 25.7°c 1012.9 hPa 90% 0.0mm
10/05:00pm N 16-18 kts 26.1°c 1012.6 hPa 88% 0.0mm
10/04:30pm NNE 17-20 kts 26.5°c 1012.4 hPa 85% 0.0mm
10/04:00pm NNE 18-20 kts 26.6°c 1012.5 hPa 83% 0.0mm
10/03:30pm NNE 18-21 kts 27.5°c 1012.8 hPa 83% 0.0mm
10/03:00pm NNE 17-21 kts 27.8°c 1013.2 hPa 83% 0.0mm
10/02:30pm NNE 18-20 kts 28.3°c 1013.5 hPa 80% 0.0mm
10/02:00pm NNE 17-20 kts 28.8°c 1013.8 hPa 80% 0.0mm
10/01:30pm NNE 18-20 kts 28.9°c 1014.2 hPa 81% 0.0mm
10/01:00pm NNE 17-19 kts 29.1°c 1014.7 hPa 82% 0.0mm
10/12:30pm NNE 17-19 kts 28.7°c 1015.1 hPa 82% 0.0mm
10/12:00pm NE 16-18 kts 28.9°c 1015.6 hPa 84% 0.0mm
10/11:30am NE 14-16 kts 28.0°c 1015.9 hPa 87% 0.0mm
10/11:00am NE 13-16 kts 28.7°c 1016.5 hPa 85% 0.0mm
10/10:30am NNW 8-14 kts 30.0°c 1017.0 hPa 71% 0.0mm
10/10:00am NNW 9-13 kts 28.8°c 1017.3 hPa 76% 0.0mm
10/09:30am NW 10-12 kts 27.7°c 1017.6 hPa 76% 0.0mm
10/09:00am NNW 9-15 kts 27.6°c 1017.6 hPa 78% 0.0mm
10/08:30am NNW 8-14 kts 27.1°c 1017.8 hPa 81% 0.0mm
10/08:00am N 7-9 kts 26.1°c 1017.8 hPa 89% 0.0mm
10/07:30am N 6-8 kts 25.4°c 1017.9 hPa 92% 0.0mm
10/07:00am WNW 1-3 kts 24.5°c 1017.9 hPa 95% 0.0mm
10/06:30am WNW 2-4 kts 23.6°c 1017.9 hPa 100% 0.0mm
10/06:00am CALM 0 kts 23.1°c 1017.9 hPa 100% 0.0mm
10/05:30am CALM 0 kts 22.3°c 1017.7 hPa 100% 0.0mm
10/05:00am WNW 3-4 kts 21.5°c 1017.6 hPa 100% 0.0mm
10/04:30am WNW 2-4 kts 21.4°c 1017.5 hPa 100% 0.0mm
10/04:00am CALM 0 kts 21.6°c 1017.4 hPa 100% 0.0mm
10/03:30am CALM 0 kts 21.5°c 1017.3 hPa 99% 0.0mm
10/03:00am NNW 1-3 kts 21.6°c 1017.2 hPa 100% 0.0mm
10/02:30am NNW 1-4 kts 22.1°c 1017.2 hPa 100% 0.0mm
10/02:00am CALM 0 kts 22.2°c 1017.4 hPa 100% 0.0mm
10/01:30am CALM 0 kts 22.7°c 1017.6 hPa 100% 0.0mm
10/01:00am CALM 0 kts 22.1°c 1017.9 hPa 100% 0.0mm
10/12:30am CALM 0 kts 22.7°c 1018.2 hPa 100% 0.0mm
10/12:00am CALM 0 kts 23.3°c 1018.5 hPa 100% 0.0mm
Time Wind Speed Temp Pressure Rel. Hum Rain
09/11:30pm NNW 3-4 kts 23.4°c 1018.9 hPa 100% 0.0mm
09/11:00pm CALM 0 kts 23.4°c 1019.1 hPa 100% 0.0mm
09/10:30pm CALM 0 kts 24.0°c 1019.3 hPa 100% 0.0mm
09/10:00pm NNW 3-4 kts 24.0°c 1019.6 hPa 100% 0.0mm
09/09:30pm N 4-5 kts 24.0°c 1019.7 hPa 100% 0.0mm
09/09:00pm NNE 7-8 kts 24.2°c 1019.6 hPa 100% 0.0mm
09/08:30pm NE 7-8 kts 24.4°c 1019.6 hPa 100% 0.0mm
09/08:00pm NE 8-9 kts 24.5°c 1019.5 hPa 100% 0.0mm
09/07:30pm NE 6-7 kts 24.6°c 1019.4 hPa 99% 0.0mm
09/07:00pm NE 6-7 kts 24.7°c 1019.3 hPa 99% 0.0mm
09/06:30pm ENE 5-6 kts 24.9°c 1019.2 hPa 98% 0.0mm
09/06:00pm E 8-9 kts 25.0°c 1019.0 hPa 97% 0.0mm
09/05:30pm E 9-11 kts 25.2°c 1018.8 hPa 96% 0.0mm
09/05:00pm E 10-11 kts 25.4°c 1018.7 hPa 95% 0.0mm
09/04:30pm ESE 9-10 kts 25.8°c 1018.8 hPa 93% 0.0mm
09/04:00pm ESE 9-11 kts 26.1°c 1018.9 hPa 92% 0.0mm
09/03:30pm ESE 9-11 kts 26.6°c 1019.0 hPa 89% 0.0mm
09/03:00pm ESE 11-13 kts 27.3°c 1019.1 hPa 87% 0.0mm
09/02:30pm ESE 11-12 kts 27.2°c 1019.5 hPa 88% 0.0mm
09/02:00pm ESE 11-12 kts 26.7°c 1019.9 hPa 89% 0.0mm
09/01:30pm ESE 12-14 kts 27.2°c 1020.0 hPa 87% 0.0mm
09/01:00pm ESE 12-14 kts 28.0°c 1020.3 hPa 84% 0.0mm
09/12:30pm ESE 12-13 kts 28.1°c 1020.3 hPa 83% 0.0mm
09/12:00pm ESE 12-14 kts 27.9°c 1020.6 hPa 84% 0.0mm
09/11:30am SE 13-14 kts 27.7°c 1020.9 hPa 85% 0.0mm
09/11:00am SSE 9-12 kts 28.1°c 1021.0 hPa 83% 0.0mm
09/10:30am SSE 13-16 kts 27.9°c 1021.2 hPa 84% 0.0mm
09/10:00am SSE 14-16 kts 27.4°c 1021.3 hPa 84% 0.0mm
09/09:30am SSE 13-16 kts 27.7°c 1021.3 hPa 83% 0.0mm
09/09:00am SSE 13-16 kts 27.0°c 1021.1 hPa 83% 0.0mm
09/08:30am SSE 14-16 kts 26.3°c 1020.9 hPa 85% 0.0mm
09/08:00am SSE 14-16 kts 26.1°c 1021.0 hPa 86% 0.0mm
09/07:30am SSE 13-15 kts 25.7°c 1020.9 hPa 87% 0.0mm
09/07:00am SSE 12-15 kts 25.0°c 1020.8 hPa 89% 0.0mm
09/06:30am SSE 12-14 kts 24.3°c 1020.7 hPa 89% 0.0mm
09/06:00am S 11-13 kts 23.7°c 1020.5 hPa 90% 0.0mm
09/05:30am S 7-9 kts 23.3°c 1020.2 hPa 89% 0.0mm
09/05:00am SSW 5-7 kts 23.0°c 1019.9 hPa 89% 0.0mm
09/04:30am S 7-10 kts 22.8°c 1019.5 hPa 88% 0.0mm
09/04:00am SSW 6-8 kts 22.8°c 1019.4 hPa 89% 0.0mm
09/03:30am SSW 7-9 kts 22.9°c 1019.4 hPa 89% 0.0mm
09/03:00am S 8-10 kts 22.7°c 1019.2 hPa 90% 0.0mm
09/02:30am SSW 6-9 kts 22.5°c 1019.1 hPa 92% 0.0mm
09/02:00am S 7-9 kts 22.7°c 1019.0 hPa 90% 0.0mm
09/01:30am SSW 7-10 kts 22.9°c 1019.2 hPa 91% 0.0mm
09/01:00am SW 6-9 kts 22.9°c 1019.4 hPa 92% 0.0mm
09/12:30am SSW 7-10 kts 23.0°c 1019.6 hPa 94% 0.0mm
09/12:00am S 8-10 kts 22.9°c 1019.9 hPa 95% 0.0mm